QPF
0.00 0.00 0.00 0.00 0.00 0.00 0.00 0.00 0.00 0.00 0.00 0.00 0.00 0.00 0.00 0.00 0.00 0.00 0.00 0.00 0.00 0.00 0.01 0.01 0.01 0.02 0.01 0.00 0.00 0.00 0.00 0.00 0.00 0.00 0.00 0.00 0.00 0.00 0.02 0.04 0.03 0.00 0.04
0.00 0.00 0.00 0.00 0.00 0.00 0.00 0.00 0.00 0.00 0.00 0.00 0.00 0.00 0.00 0.01 0.01 0.00 0.00 0.00 0.01 0.05 0.03 0.05 0.02 0.04 0.08 0.04 0.00 0.00 0.00 0.00 0.00 0.00 0.00 0.00 0.00 0.00 0.01 0.06 0.02 0.01 0.01
0.00 0.00 0.00 0.00 0.00 0.00 0.00 0.00 0.00 0.00 0.00 0.00 0.00 0.00 0.00 0.01 0.03 0.00 0.00 0.01 0.05 0.13 0.11 0.03 0.00 0.02 0.07 0.14 0.01 0.00 0.00 0.00 0.00 0.00 0.01 0.00 0.00 0.03 0.01 0.06 0.02 0.01 0.00
0.00 0.00 0.00 0.00 0.00 0.00 0.00 0.00 0.00 0.00 0.00 0.00 0.00 0.00 0.00 0.02 0.02 0.02 0.02 0.08 0.17 0.31 0.32 0.10 0.05 0.08 0.04 0.04 0.02 0.00 0.00 0.00 0.00 0.01 0.00 0.00 0.00 0.01 0.00 0.00 0.00 0.01 0.01
0.00 0.00 0.00 0.00 0.00 0.00 0.00 0.00 0.00 0.00 0.00 0.00 0.00 0.00 0.01 0.02 0.04 0.03 0.09 0.27 0.80 0.67 0.55 0.42 0.19 0.18 0.08 0.00 0.00 0.00 0.00 0.00 0.03 0.04 0.00 0.00 0.00 0.01 0.00 0.01 0.01 0.01 0.01
0.00 0.00 0.00 0.00 0.00 0.00 0.00 0.00 0.00 0.00 0.00 0.00 0.00 0.00 0.00 0.03 0.05 0.02 0.01 0.07 0.62 0.43 0.84 1.31 0.41 0.17 0.02 0.00 0.00 0.00 0.00 0.01 0.04 0.02 0.00 0.00 0.00 0.00 0.02 0.01 0.00 0.00 0.00
0.00 0.00 0.00 0.00 0.00 0.00 0.00 0.00 0.00 0.00 0.00 0.00 0.00 0.00 0.00 0.01 0.01 0.00 0.00 0.00 0.01 0.08 0.32 0.35 0.22 0.20 0.02 0.00 0.00 0.00 0.00 0.00 0.03 0.23 0.00 0.00 0.00 0.02 0.03 0.00 0.00 0.00 0.00
0.00 0.00 0.00 0.00 0.00 0.00 0.00 0.00 0.00 0.00 0.00 0.00 0.00 0.00 0.00 0.01 0.00 0.02 0.01 0.00 0.00 0.00 0.00 0.01 0.06 0.08 0.03 0.00 0.00 0.00 0.00 0.00 0.00 0.07 0.00 0.00 0.00 0.01 0.00 0.00 0.00 0.00 0.00
0.00 0.00 0.00 0.00 0.00 0.00 0.00 0.00 0.00 0.00 0.00 0.00 0.00 0.01 0.01 0.03 0.03 0.02 0.00 0.00 0.00 0.00 0.00 0.00 0.02 0.08 0.06 0.01 0.00 0.00 0.00 0.00 0.01 0.03 0.00 0.00 0.00 0.00 0.00 0.00 0.00 0.00 0.00
0.00 0.00 0.00 0.00 0.00 0.00 0.00 0.00 0.00 0.00 0.00 0.00 0.00 0.00 0.00 0.01 0.02 0.01 0.00 0.00 0.00 0.00 0.00 0.00 0.05 0.10 0.16 0.13 0.01 0.00 0.00 0.00 0.00 0.04 0.00 0.00 0.00 0.00 0.00 0.00 0.00 0.00 0.00
0.00 0.00 0.00 0.00 0.00 0.00 0.00 0.00 0.00 0.00 0.00 0.00 0.00 0.00 0.00 0.00 0.00 0.00 0.00 0.00 0.00 0.00 0.00 0.07 0.14 0.13 0.15 0.17 0.07 0.00 0.00 0.00 0.00 0.00 0.00 0.00 0.00 0.00 0.00 0.00 0.00 0.00 0.00
0.00 0.00 0.00 0.00 0.00 0.00 0.00 0.00 0.00 0.00 0.00 0.00 0.00 0.00 0.00 0.01 0.01 0.01 0.00 0.00 0.01 0.03 0.05 0.10 0.09 0.13 0.10 0.06 0.05 0.00 0.00 0.00 0.00 0.00 0.00 0.00 0.00 0.00 0.00 0.00 0.00 0.00 0.00
0.00 0.00 0.00 0.00 0.00 0.00 0.00 0.00 0.00 0.00 0.00 0.00 0.00 0.00 0.00 0.01 0.03 0.06 0.05 0.01 0.05 0.10 0.09 0.03 0.02 0.02 0.06 0.02 0.01 0.00 0.00 0.00 0.00 0.00 0.00 0.00 0.00 0.00 0.00 0.00 0.00 0.00 0.00
0.00 0.00 0.00 0.00 0.00 0.00 0.00 0.00 0.00 0.00 0.00 0.00 0.00 0.00 0.00 0.01 0.02 0.03 0.01 0.03 0.04 0.02 0.05 0.02 0.00 0.06 0.06 0.02 0.00 0.00 0.00 0.00 0.00 0.00 0.00 0.00 0.00 0.00 0.00 0.00 0.00 0.00 0.00
0.00 0.00 0.00 0.00 0.00 0.00 0.00 0.00 0.00 0.00 0.00 0.00 0.00 0.00 0.00 0.00 0.00 0.00 0.01 0.03 0.05 0.07 0.07 0.01 0.02 0.01 0.03 0.05 0.01 0.00 0.00 0.00 0.00 0.00 0.00 0.00 0.00 0.00 0.01 0.01 0.00 0.00 0.00
0.00 0.00 0.00 0.00 0.00 0.00 0.00 0.00 0.00 0.00 0.00 0.00 0.00 0.00 0.00 0.00 0.01 0.00 0.00 0.02 0.08 0.09 0.04 0.03 0.07 0.04 0.07 0.19 0.03 0.00 0.00 0.00 0.00 0.00 0.00 0.00 0.00 0.00 0.00 0.01 0.00 0.00 0.00
0.00 0.00 0.00 0.00 0.00 0.00 0.00 0.00 0.00 0.00 0.00 0.00 0.00 0.00 0.00 0.00 0.01 0.00 0.00 0.01 0.05 0.05 0.07 0.13 0.17 0.12 0.07 0.08 0.02 0.00 0.00 0.00 0.00 0.00 0.00 0.00 0.00 0.00 0.00 0.00 0.00 0.00 0.00
0.00 0.00 0.00 0.00 0.00 0.00 0.00 0.00 0.00 0.00 0.00 0.00 0.00 0.00 0.00 0.00 0.00 0.01 0.00 0.00 0.03 0.08 0.14 0.16 0.34 0.15 0.11 0.05 0.03 0.01 0.00 0.00 0.00 0.00 0.00 0.00 0.00 0.00 0.00 0.00 0.00 0.00 0.00
0.00 0.00 0.00 0.00 0.00 0.00 0.00 0.00 0.00 0.00 0.00 0.00 0.00 0.00 0.00 0.01 0.01 0.00 0.00 0.00 0.02 0.02 0.04 0.24 0.41 0.32 0.19 0.08 0.04 0.02 0.00 0.00 0.00 0.00 0.00 0.00 0.00 0.00 0.00 0.00 0.00 0.00 0.00
0.00 0.00 0.00 0.00 0.00 0.00 0.00 0.00 0.00 0.00 0.00 0.00 0.00 0.01 0.00 0.01 0.01 0.01 0.00 0.00 0.01 0.01 0.01 0.03 0.18 0.22 0.28 0.18 0.05 0.04 0.01 0.00 0.00 0.00 0.00 0.00 0.00 0.00 0.00 0.00 0.00 0.00 0.00
0.00 0.00 0.00 0.00 0.00 0.00 0.00 0.00 0.00 0.00 0.00 0.00 0.00 0.01 0.01 0.00 0.01 0.01 0.00 0.01 0.00 0.00 0.01 0.04 0.11 0.11 0.12 0.10 0.06 0.06 0.03 0.00 0.00 0.00 0.00 0.00 0.00 0.00 0.00 0.00 0.00 0.00 0.00
0.00 0.00 0.00 0.00 0.00 0.00 0.00 0.00 0.00 0.00 0.00 0.00 0.00 0.00 0.01 0.01 0.00 0.01 0.01 0.00 0.00 0.01 0.01 0.03 0.11 0.15 0.08 0.13 0.04 0.02 0.03 0.04 0.01 0.00 0.00 0.00 0.00 0.00 0.00 0.00 0.00 0.00 0.00
0.00 0.00 0.00 0.00 0.00 0.00 0.00 0.00 0.00 0.00 0.00 0.00 0.00 0.00 0.00 0.00 0.01 0.01 0.01 0.01 0.01 0.01 0.01 0.02 0.04 0.10 0.08 0.07 0.07 0.00 0.00 0.01 0.01 0.01 0.00 0.00 0.00 0.00 0.00 0.00 0.00 0.00 0.00
0.00 0.00 0.00 0.00 0.00 0.00 0.00 0.00 0.00 0.00 0.00 0.00 0.00 0.00 0.00 0.00 0.00 0.00 0.01 0.01 0.01 0.01 0.02 0.02 0.04 0.08 0.06 0.06 0.05 0.02 0.00 0.00 0.00 0.01 0.00 0.00 0.00 0.00 0.00 0.00 0.00 0.00 0.00
0.00 0.00 0.00 0.00 0.00 0.00 0.00 0.00 0.00 0.00 0.00 0.00 0.00 0.00 0.00 0.00 0.00 0.00 0.01 0.01 0.00 0.00 0.02 0.02 0.05 0.15 0.10 0.03 0.01 0.01 0.00 0.00 0.00 0.00 0.00 0.00 0.00 0.00 0.00 0.00 0.00 0.00 0.00
0.00 0.00 0.00 0.00 0.00 0.00 0.00 0.00 0.00 0.00 0.00 0.01 0.01 0.00 0.00 0.00 0.00 0.00 0.01 0.01 0.00 0.00 0.02 0.06 0.11 0.14 0.16 0.09 0.02 0.01 0.00 0.01 0.00 0.00 0.00 0.00 0.00 0.00 0.00 0.00 0.00 0.00 0.00
MSLP
1005.34 1006.13 1006.72 1007.31 1007.80 1008.15 1008.49 1008.75 1009.12 1009.52 1009.79 1010.01 1010.32 1010.73 1011.01 1011.42 1011.76 1012.05 1012.33 1012.57 1012.77 1013.02 1013.21 1013.49 1013.76 1013.95 1014.13 1014.40 1014.63 1014.99 1015.37 1015.63 1015.70 1015.70 1015.93 1016.30 1016.59 1016.88 1017.23 1017.38 1017.59 1017.98 1018.21
1005.01 1006.05 1007.01 1007.44 1007.78 1008.12 1008.53 1008.85 1009.20 1009.53 1009.91 1010.16 1010.65 1010.99 1011.26 1011.54 1011.87 1012.30 1012.71 1013.00 1013.32 1013.47 1013.54 1013.92 1014.10 1014.38 1014.70 1014.71 1014.87 1015.13 1015.41 1015.88 1015.95 1016.18 1016.63 1016.86 1017.09 1017.21 1017.56 1017.73 1018.15 1018.40 1018.66
1004.79 1006.10 1007.05 1007.63 1008.04 1008.27 1008.68 1009.08 1009.45 1009.64 1009.91 1010.17 1010.67 1011.10 1011.41 1011.79 1012.17 1012.47 1012.94 1013.22 1013.52 1013.81 1013.89 1014.43 1014.45 1014.51 1014.67 1015.19 1015.68 1015.71 1015.59 1015.92 1016.17 1016.36 1016.52 1017.21 1017.67 1017.76 1017.94 1018.19 1018.65 1018.88 1019.01
1004.96 1006.06 1006.92 1007.72 1008.11 1008.45 1008.77 1009.17 1009.47 1009.80 1010.19 1010.35 1010.69 1011.08 1011.47 1011.98 1012.41 1012.77 1013.06 1013.42 1013.97 1014.61 1014.58 1014.52 1014.83 1015.04 1015.28 1015.48 1015.60 1016.00 1016.11 1016.22 1016.19 1016.34 1016.48 1017.13 1017.86 1018.36 1018.45 1018.65 1018.98 1019.22 1019.42
1004.83 1005.59 1006.81 1007.55 1008.01 1008.48 1008.83 1009.12 1009.55 1009.81 1010.23 1010.57 1010.86 1011.16 1011.52 1011.94 1012.34 1012.95 1013.16 1013.71 1014.37 1015.35 1016.15 1015.54 1015.30 1015.47 1015.72 1015.80 1015.79 1015.87 1016.11 1016.51 1016.72 1016.89 1016.80 1017.11 1017.98 1018.67 1018.84 1019.07 1019.31 1019.51 1019.73
1004.48 1005.24 1006.71 1007.27 1007.85 1008.32 1008.85 1009.16 1009.50 1009.99 1010.43 1010.70 1011.05 1011.41 1011.70 1012.08 1012.41 1012.92 1013.24 1013.49 1014.29 1014.63 1015.18 1015.18 1016.28 1015.71 1015.86 1016.30 1016.19 1016.05 1015.78 1017.01 1017.15 1017.00 1017.14 1017.45 1018.23 1018.85 1019.17 1019.55 1019.74 1019.93 1020.26
1004.51 1005.66 1006.74 1007.26 1007.82 1008.31 1008.70 1009.08 1009.42 1009.88 1010.34 1010.70 1011.04 1011.45 1011.80 1012.16 1012.53 1013.09 1013.36 1013.68 1014.12 1014.14 1014.23 1015.07 1016.31 1016.14 1016.18 1016.50 1016.33 1016.11 1016.36 1017.06 1017.20 1017.97 1017.36 1017.96 1018.30 1019.38 1019.58 1019.91 1020.25 1020.51 1020.69
1005.07 1006.01 1006.83 1007.40 1007.90 1008.25 1008.66 1009.10 1009.51 1009.81 1010.26 1010.66 1010.93 1011.47 1012.04 1012.35 1012.76 1013.24 1013.66 1013.91 1014.10 1014.31 1014.62 1015.12 1015.67 1015.90 1016.43 1016.74 1016.51 1016.29 1016.37 1017.04 1017.13 1017.48 1017.44 1018.02 1018.76 1019.61 1019.98 1020.29 1020.67 1020.92 1021.20
1004.96 1005.89 1006.88 1007.48 1007.93 1008.28 1008.70 1009.15 1009.52 1009.86 1010.23 1010.65 1010.91 1011.39 1012.05 1012.59 1012.81 1013.28 1013.80 1014.07 1014.13 1014.52 1015.00 1015.18 1015.23 1015.49 1016.16 1016.82 1016.89 1016.48 1016.61 1017.01 1017.32 1017.31 1017.80 1018.42 1018.89 1019.78 1020.40 1020.71 1020.97 1021.15 1021.44
1005.02 1005.75 1006.67 1007.36 1007.84 1008.20 1008.65 1009.07 1009.48 1009.73 1010.21 1010.63 1010.96 1011.44 1012.00 1012.43 1012.94 1013.43 1013.82 1014.15 1014.30 1014.74 1015.18 1015.51 1015.71 1015.67 1016.38 1016.89 1017.07 1016.94 1016.70 1016.85 1017.19 1017.70 1017.73 1018.82 1019.49 1019.80 1020.59 1020.89 1021.29 1021.47 1021.75
1005.04 1005.66 1006.28 1007.03 1007.58 1007.86 1008.26 1008.92 1009.50 1009.72 1010.14 1010.61 1011.03 1011.40 1011.91 1012.34 1012.98 1013.38 1013.81 1014.13 1014.43 1014.70 1015.20 1015.64 1015.97 1016.18 1016.34 1017.17 1017.49 1017.33 1016.79 1016.70 1016.99 1017.85 1018.32 1018.88 1019.51 1020.00 1020.69 1021.09 1021.55 1021.68 1021.98
1004.77 1005.41 1005.85 1006.47 1007.15 1007.59 1007.73 1008.43 1009.13 1009.56 1009.95 1010.49 1010.78 1011.29 1011.59 1011.91 1012.38 1012.70 1013.20 1013.89 1014.35 1014.71 1015.23 1015.79 1016.16 1016.40 1016.67 1017.31 1017.82 1017.64 1016.94 1016.61 1017.28 1018.10 1018.60 1018.99 1019.63 1020.08 1020.95 1021.31 1021.75 1021.95 1022.20
1003.64 1004.59 1005.22 1006.00 1006.66 1007.26 1007.47 1007.86 1008.52 1008.91 1009.33 1009.87 1010.18 1010.61 1011.13 1011.36 1011.89 1012.43 1012.79 1013.52 1014.20 1014.69 1015.37 1015.88 1016.45 1016.39 1016.39 1017.18 1017.54 1017.45 1017.03 1016.81 1017.66 1018.18 1019.02 1018.99 1019.72 1020.34 1021.15 1021.57 1021.91 1022.13 1022.37
1002.88 1003.39 1004.15 1005.09 1006.06 1006.78 1007.16 1007.59 1008.02 1008.36 1008.64 1009.11 1009.51 1009.95 1010.48 1010.87 1011.37 1012.00 1012.51 1013.18 1013.84 1014.38 1015.02 1015.57 1016.22 1016.08 1016.28 1016.61 1017.00 1017.18 1016.94 1016.80 1017.50 1018.25 1019.17 1019.25 1019.76 1020.55 1021.26 1021.63 1021.91 1022.25 1022.53
1002.32 1002.67 1003.35 1004.26 1005.21 1006.10 1006.72 1007.37 1007.83 1007.89 1008.07 1008.37 1008.79 1009.23 1009.77 1010.36 1010.80 1011.34 1012.07 1012.72 1013.45 1014.02 1014.61 1015.24 1015.75 1015.92 1016.16 1016.14 1016.40 1016.68 1016.63 1016.67 1017.37 1018.27 1019.24 1019.51 1019.81 1020.57 1021.32 1021.65 1021.85 1022.27 1022.56
1001.96 1002.31 1002.87 1003.62 1004.50 1005.38 1006.15 1006.78 1007.28 1007.70 1007.49 1007.79 1008.24 1008.52 1009.18 1009.62 1010.16 1010.82 1011.61 1012.39 1013.02 1013.59 1014.19 1014.65 1015.34 1015.85 1016.32 1016.25 1016.35 1016.25 1016.47 1016.56 1017.29 1018.16 1019.11 1019.79 1020.07 1020.63 1021.19 1021.60 1021.88 1022.21 1022.49
1001.49 1001.78 1002.36 1003.13 1003.88 1004.71 1005.41 1006.10 1006.75 1007.32 1007.21 1007.40 1007.75 1007.80 1008.45 1009.06 1009.52 1010.25 1011.01 1011.82 1012.39 1013.08 1013.79 1014.42 1015.15 1015.70 1016.39 1016.87 1016.42 1016.04 1016.38 1016.46 1017.08 1018.01 1018.87 1019.77 1020.32 1020.78 1021.10 1021.45 1021.82 1022.16 1022.58
1000.95 1001.22 1001.72 1002.15 1002.98 1003.78 1004.62 1005.46 1006.16 1006.90 1007.01 1006.94 1007.07 1007.39 1007.79 1008.46 1009.01 1009.80 1010.52 1011.27 1011.95 1012.75 1013.59 1014.28 1015.14 1015.89 1016.41 1016.51 1016.28 1016.23 1016.43 1016.44 1017.14 1017.88 1018.73 1019.47 1020.23 1020.72 1021.18 1021.41 1021.81 1022.20 1022.69
1000.69 1000.86 1001.40 1001.79 1002.61 1003.14 1003.76 1004.68 1005.48 1006.20 1006.63 1006.64 1006.53 1006.93 1007.34 1008.09 1008.67 1009.38 1010.11 1010.92 1011.67 1012.75 1013.46 1014.12 1015.32 1015.45 1016.33 1016.47 1016.32 1016.43 1016.49 1016.64 1017.13 1017.66 1018.47 1019.07 1019.82 1020.51 1021.02 1021.40 1021.79 1022.19 1022.61
1000.75 1001.25 1001.66 1002.12 1002.38 1002.99 1003.36 1003.92 1004.90 1005.60 1005.98 1006.35 1006.58 1006.75 1007.15 1007.77 1008.49 1009.12 1009.88 1010.64 1011.34 1012.42 1013.24 1013.92 1014.78 1015.26 1015.72 1016.55 1016.38 1016.22 1016.50 1016.72 1017.02 1017.69 1018.09 1018.52 1019.23 1020.02 1020.55 1021.15 1021.78 1022.18 1022.46
1001.02 1001.44 1001.90 1002.20 1002.48 1002.86 1003.26 1003.55 1003.98 1004.75 1005.33 1005.79 1006.13 1006.73 1007.03 1007.41 1008.14 1008.90 1009.68 1010.37 1011.11 1011.91 1012.60 1013.43 1014.38 1014.93 1015.99 1016.22 1016.49 1016.41 1016.76 1016.67 1017.20 1017.56 1017.72 1018.29 1018.78 1019.41 1019.99 1020.63 1021.36 1021.95 1022.34
1001.17 1001.71 1002.13 1002.25 1002.26 1002.31 1002.67 1002.88 1003.23 1003.74 1004.34 1005.07 1005.71 1006.45 1006.68 1006.99 1007.42 1008.33 1009.21 1010.06 1010.70 1011.53 1012.17 1012.92 1013.63 1014.41 1015.16 1015.27 1015.85 1016.15 1016.97 1017.29 1017.06 1017.51 1017.70 1018.04 1018.55 1018.84 1019.60 1020.23 1020.86 1021.27 1021.83
1001.62 1002.16 1002.48 1002.33 1002.02 1001.69 1001.76 1002.18 1002.72 1003.59 1004.47 1005.26 1005.60 1006.16 1006.32 1006.79 1007.11 1007.81 1008.69 1009.65 1010.32 1010.99 1011.55 1012.21 1012.89 1013.60 1014.12 1014.77 1015.24 1015.10 1016.08 1016.57 1017.03 1017.61 1017.73 1017.97 1018.33 1018.65 1019.10 1019.58 1020.21 1020.54 1021.05
1001.73 1002.32 1002.67 1002.50 1001.80 1001.22 1001.35 1001.91 1002.52 1003.40 1004.28 1004.81 1005.37 1005.88 1006.15 1006.45 1007.02 1007.59 1008.28 1009.11 1009.86 1010.40 1011.08 1011.59 1012.16 1012.74 1013.50 1014.12 1014.67 1014.51 1014.88 1015.17 1016.16 1017.52 1017.83 1017.95 1018.22 1018.36 1018.77 1019.07 1019.72 1019.96 1020.33
1001.79 1002.35 1002.50 1002.47 1002.19 1001.54 1001.59 1002.02 1002.47 1003.23 1003.86 1004.50 1004.98 1005.54 1005.87 1006.33 1006.70 1007.25 1007.84 1008.48 1009.33 1009.87 1010.45 1010.93 1011.50 1012.15 1012.58 1013.07 1013.25 1013.91 1014.35 1014.64 1015.57 1016.33 1017.25 1017.76 1018.08 1018.01 1018.44 1018.95 1019.37 1019.79 1020.10
1001.81 1002.15 1002.32 1002.12 1002.20 1002.27 1002.48 1002.60 1002.75 1003.01 1003.58 1004.23 1004.44 1004.78 1005.29 1005.86 1006.21 1006.64 1007.21 1007.85 1008.60 1009.35 1009.81 1010.33 1010.85 1011.08 1011.55 1012.40 1012.73 1013.11 1013.36 1013.63 1014.63 1015.52 1016.48 1017.19 1017.64 1017.85 1018.09 1018.57 1018.89 1019.58 1020.11
Thickness
5791 5788 5783 5778 5773 5769 5765 5762 5758 5753 5749 5746 5742 5737 5733 5727 5722 5718 5714 5711 5708 5706 5704 5704 5703 5702 5698 5696 5695 5695 5694 5694 5694 5696 5695 5694 5694 5694 5692 5693 5692 5690 5690
5796 5787 5779 5775 5771 5767 5762 5759 5754 5750 5746 5742 5737 5733 5728 5724 5720 5714 5709 5704 5701 5699 5699 5696 5696 5696 5693 5691 5690 5692 5691 5688 5691 5692 5690 5690 5689 5689 5688 5688 5685 5685 5684
5796 5785 5776 5771 5767 5763 5758 5754 5749 5747 5743 5740 5734 5729 5724 5719 5714 5709 5703 5701 5697 5693 5692 5686 5688 5688 5687 5684 5685 5684 5686 5685 5685 5687 5688 5685 5683 5683 5684 5683 5681 5680 5680
5792 5782 5775 5767 5763 5759 5755 5750 5746 5742 5737 5735 5730 5726 5721 5714 5708 5703 5700 5697 5690 5679 5678 5678 5678 5678 5678 5680 5682 5681 5680 5680 5683 5684 5685 5682 5678 5676 5678 5677 5675 5674 5674
5790 5783 5773 5766 5760 5755 5751 5748 5743 5740 5734 5730 5725 5722 5717 5710 5705 5698 5696 5692 5683 5664 5662 5664 5662 5667 5670 5672 5675 5677 5677 5676 5676 5677 5681 5679 5675 5670 5671 5670 5670 5669 5669
5791 5784 5771 5766 5759 5754 5749 5745 5741 5735 5730 5726 5721 5716 5712 5706 5701 5695 5693 5692 5682 5676 5671 5661 5651 5657 5663 5662 5667 5671 5675 5667 5669 5673 5674 5673 5670 5666 5666 5663 5663 5664 5663
5787 5777 5768 5763 5757 5752 5748 5743 5740 5734 5727 5723 5719 5713 5708 5703 5696 5689 5689 5687 5684 5683 5678 5672 5657 5656 5658 5657 5661 5666 5666 5663 5665 5661 5668 5666 5666 5659 5659 5658 5657 5656 5657
5776 5770 5763 5758 5753 5750 5747 5741 5736 5731 5725 5720 5716 5710 5702 5698 5691 5684 5682 5680 5675 5674 5671 5665 5660 5658 5655 5653 5657 5661 5662 5659 5663 5663 5665 5663 5659 5653 5652 5653 5652 5652 5651
5774 5766 5757 5752 5748 5745 5742 5737 5732 5727 5721 5716 5713 5706 5698 5693 5689 5683 5677 5675 5672 5667 5663 5660 5659 5658 5656 5651 5651 5656 5656 5654 5657 5662 5657 5657 5656 5649 5646 5646 5646 5647 5647
5767 5763 5754 5749 5745 5741 5737 5733 5729 5725 5718 5712 5708 5702 5695 5690 5684 5678 5674 5671 5668 5663 5657 5656 5652 5654 5649 5645 5646 5649 5651 5651 5654 5654 5655 5650 5646 5646 5641 5641 5640 5641 5641
5759 5757 5753 5748 5742 5739 5735 5729 5724 5721 5715 5709 5703 5698 5692 5686 5679 5673 5669 5667 5662 5657 5653 5649 5646 5645 5646 5641 5639 5640 5646 5649 5650 5652 5646 5647 5643 5641 5637 5637 5635 5637 5637
5752 5751 5750 5747 5741 5737 5735 5728 5722 5717 5713 5706 5700 5694 5689 5684 5678 5674 5669 5662 5659 5655 5650 5645 5642 5639 5639 5636 5633 5634 5641 5646 5644 5646 5642 5643 5639 5637 5633 5632 5631 5632 5633
5755 5751 5750 5745 5740 5734 5733 5728 5722 5717 5713 5706 5700 5695 5688 5684 5679 5673 5670 5662 5655 5652 5645 5641 5635 5635 5636 5632 5631 5632 5638 5641 5642 5640 5636 5640 5636 5633 5629 5628 5628 5628 5629
5750 5753 5752 5747 5739 5733 5730 5726 5722 5718 5714 5708 5702 5695 5688 5684 5679 5673 5668 5662 5653 5646 5643 5639 5633 5634 5634 5634 5631 5631 5637 5637 5642 5637 5632 5636 5633 5630 5625 5624 5625 5625 5625
5748 5748 5748 5747 5740 5732 5727 5722 5718 5716 5715 5709 5703 5697 5690 5685 5681 5673 5667 5661 5652 5646 5640 5634 5632 5632 5632 5635 5633 5634 5636 5638 5641 5634 5631 5631 5630 5626 5623 5622 5624 5622 5621
5744 5744 5740 5740 5739 5732 5726 5721 5716 5713 5714 5708 5703 5698 5689 5686 5683 5675 5667 5660 5652 5647 5641 5638 5635 5632 5630 5632 5632 5635 5636 5638 5639 5632 5629 5627 5626 5624 5621 5620 5620 5619 5618
5740 5740 5736 5733 5734 5731 5725 5720 5715 5710 5710 5707 5702 5699 5693 5686 5683 5677 5669 5661 5655 5648 5641 5636 5632 5629 5626 5624 5631 5634 5634 5637 5635 5633 5628 5624 5621 5619 5617 5617 5616 5614 5612
5736 5733 5732 5736 5732 5729 5725 5718 5713 5707 5706 5707 5702 5697 5693 5687 5682 5676 5670 5662 5654 5649 5641 5635 5628 5622 5622 5624 5628 5630 5632 5633 5630 5630 5625 5622 5618 5615 5613 5614 5612 5610 5607
5728 5726 5726 5728 5723 5726 5723 5717 5712 5706 5702 5702 5701 5697 5691 5685 5680 5675 5669 5661 5652 5645 5640 5633 5622 5621 5617 5619 5623 5625 5627 5630 5628 5627 5623 5621 5618 5613 5612 5610 5608 5607 5607
5714 5719 5718 5716 5717 5714 5717 5716 5711 5704 5701 5698 5693 5692 5687 5681 5677 5672 5666 5659 5651 5644 5637 5631 5624 5622 5619 5614 5619 5623 5624 5626 5624 5623 5624 5621 5619 5613 5611 5609 5607 5606 5605
5705 5708 5705 5706 5707 5706 5705 5706 5706 5701 5698 5694 5691 5684 5683 5679 5673 5668 5663 5656 5649 5644 5637 5630 5624 5618 5614 5614 5613 5613 5615 5622 5619 5619 5621 5618 5618 5614 5612 5611 5608 5605 5604
5697 5694 5694 5698 5701 5704 5703 5704 5704 5703 5701 5693 5687 5680 5678 5679 5673 5668 5660 5655 5649 5642 5637 5630 5625 5618 5615 5617 5612 5611 5601 5608 5616 5615 5616 5616 5617 5615 5612 5609 5607 5606 5604
5680 5681 5683 5689 5695 5702 5704 5704 5701 5697 5691 5683 5680 5675 5675 5673 5672 5667 5659 5653 5647 5641 5637 5631 5624 5619 5614 5612 5612 5614 5603 5605 5609 5608 5609 5612 5614 5614 5612 5609 5608 5607 5605
5669 5672 5673 5678 5688 5697 5700 5696 5694 5686 5680 5679 5674 5670 5668 5669 5667 5662 5657 5650 5644 5640 5635 5631 5624 5620 5613 5609 5609 5613 5615 5616 5608 5596 5602 5608 5612 5611 5611 5611 5608 5608 5606
5660 5660 5664 5668 5672 5683 5688 5686 5687 5680 5678 5674 5669 5664 5663 5662 5662 5658 5654 5649 5641 5637 5634 5631 5624 5618 5612 5611 5614 5611 5613 5616 5611 5606 5596 5601 5607 5609 5609 5607 5606 5605 5603
5650 5652 5654 5660 5663 5667 5670 5671 5675 5674 5670 5666 5665 5662 5660 5658 5658 5655 5651 5647 5641 5634 5630 5625 5621 5616 5612 5610 5612 5612 5614 5615 5611 5607 5601 5600 5600 5604 5606 5604 5603 5601 5596